星链-4773 (STARLINK-4773 )

导读

STARLINK-4773是由美国于2022年9月19日发射的Starlink卫星,属于SpaceX星链星座组网卫星之一,星链项目旨在构建全球卫星互联网星座,为全球用户提供高速低延迟的互联网接入服务,该卫星发射后进入近地轨道参与星座运营,支撑星链网络服务覆盖能力的拓展。

Basic Information
目录编号:
53838
目录名称:
STARLINK-4773
国际标识:
2022-114W
轨道中心:
EARTH
卫星名称:
星链-4773
卫星全名:
星链-4773 (STARLINK-4773 )
卫星状态:
在轨 (已飞行1367 天)
发射日期:
2022-09-19 UTC
国别 :
美国 (US)
星等 :
--
Orbit Information
数据来源 国际轨道数据 AOE轨道数据
星历时间 2026-06-17T03:32:11+0800
16小时前
查看轨道信息
2026-06-14T04:00:00+0800
3天前
查看轨道信息
半长轴 6917.924km 6917.953km
偏心率 0.0001144 0.0001324
轨道倾角 53.160° 53.156°
近地点辐角 88.605° 78.371°
升交点赤经 209.209° 222.609°
平近点角 271.507° 282.506°
近地点 538.995km 538.9km
远地点 540.579km 540.732km
周期 95.438分钟 95.439分钟
每日圈数 15.088259 15.088163
Detailed Information
固有亮度:
5
最大亮度:
2.5
卫星平台:
Starlink v1.5
覆盖范围:
全球
运营商:
太空探索技术公司
运营商所在国:
美国
制造商(研发单位):
太空探索技术公司
制造商所在国:
美国
使用方式:
暂无
Satellite Introduction
星链(Starlink)计划是由太空探索技术公司(SpaceX)提出的一个巨型低轨卫星互联网星座项目,计划在2019年至2024年间在太空搭建由约1.2万颗卫星组成的“星链”网络,其中1584颗将部署在地球上空550千米处的近地轨道,并从2020年开始工作。该卫星仍在工作。
2D Orbit Map
3D Orbit Map
Orbit Altitude Analysis Chart
Orbit Inclination Analysis Chart
Orbit Comprehensive Analysis Chart
View Comprehensive Chart